Location: Axtheid
(49.6213°N, 11.8205°E)
Time: 22:25:53
(UTC+00:00)

Envisat - Pass Details

Date: 20 January 2022
Orbit: 764 x 765 km, 98.2° (Epoch: 21 May)

Event Time Altitude Azimuth Distance (km) Brightness Sun altitude
Rises 02:59:44 0° 26° (NNE) 3,242 6.7 -38.3°
Reaches altitude 10° 03:02:39 10° 43° (NE) 2,310 6.0 -37.8°
Maximum altitude 03:06:22 20° 90° (E) 1,706 5.3 -37.2°
Drops below altitude 10° 03:10:05 10° 137° (SE) 2,298 5.7 -36.7°
Sets 03:12:58 0° 154° (SSE) 3,219 6.4 -36.2°
